TimeEDT,TemperatureF,Dew PointF,Humidity,Sea Level PressureIn,VisibilityMPH,Wind Direction,Wind SpeedMPH,Gust SpeedMPH,PrecipitationIn,Events,Conditions,WindDirDegrees,DateUTC
12:52 AM,42.1,30.0,62,30.38,10.0,Calm,Calm,-,N/A,,Clear,0,2013-04-18 04:52:00
1:52 AM,39.0,30.9,73,30.38,10.0,NW,3.5,-,N/A,,Clear,310,2013-04-18 05:52:00
2:52 AM,37.9,30.0,73,30.38,10.0,NNW,3.5,-,N/A,,Clear,330,2013-04-18 06:52:00
3:52 AM,37.9,30.0,73,30.40,10.0,NNW,3.5,-,N/A,,Clear,340,2013-04-18 07:52:00
4:52 AM,37.0,28.9,73,30.41,10.0,Calm,Calm,-,N/A,,Clear,0,2013-04-18 08:52:00
5:52 AM,35.1,28.9,78,30.41,10.0,Calm,Calm,-,N/A,,Clear,0,2013-04-18 09:52:00
6:52 AM,37.0,30.9,79,30.43,10.0,Calm,Calm,-,N/A,,Clear,0,2013-04-18 10:52:00
7:52 AM,46.9,30.9,54,30.45,10.0,Calm,Calm,-,N/A,,Clear,0,2013-04-18 11:52:00
8:52 AM,48.9,30.0,48,30.42,10.0,East,6.9,-,N/A,,Clear,100,2013-04-18 12:52:00
9:12 AM,51.8,30.2,44,30.41,1.5,ESE,5.8,-,N/A,,Haze,120,2013-04-18 13:12:00
9:21 AM,51.8,30.2,44,30.41,4.0,East,5.8,-,N/A,,Haze,90,2013-04-18 13:21:00
9:52 AM,53.1,30.9,43,30.42,10.0,Calm,Calm,-,N/A,,Clear,0,2013-04-18 13:52:00
10:52 AM,57.0,28.0,33,30.40,10.0,Variable,5.8,16.1,N/A,,Clear,0,2013-04-18 14:52:00
11:52 AM,60.1,28.0,30,30.38,10.0,SSE,11.5,20.7,N/A,,Overcast,160,2013-04-18 15:52:00
12:52 PM,63.0,28.9,28,30.33,10.0,South,15.0,21.9,N/A,,Scattered Clouds,180,2013-04-18 16:52:00
1:52 PM,64.0,30.0,28,30.30,10.0,SSE,16.1,21.9,N/A,,Overcast,150,2013-04-18 17:52:00
2:52 PM,64.0,30.9,29,30.28,10.0,SSE,17.3,20.7,N/A,,Overcast,150,2013-04-18 18:52:00
3:52 PM,63.0,30.9,30,30.26,10.0,South,12.7,19.6,N/A,,Overcast,170,2013-04-18 19:52:00
4:52 PM,62.1,30.0,30,30.25,10.0,South,15.0,-,N/A,,Overcast,170,2013-04-18 20:52:00
5:52 PM,59.0,28.9,32,30.25,10.0,SSE,12.7,-,N/A,,Overcast,150,2013-04-18 21:52:00
6:52 PM,57.9,28.0,32,30.23,10.0,SSE,15.0,-,N/A,,Overcast,150,2013-04-18 22:52:00
7:52 PM,57.0,26.1,30,30.22,10.0,SSE,10.4,-,N/A,,Overcast,160,2013-04-18 23:52:00
8:52 PM,55.9,27.0,33,30.20,10.0,South,6.9,19.6,N/A,,Overcast,170,2013-04-19 00:52:00
9:52 PM,53.1,37.0,55,30.20,10.0,South,6.9,-,N/A,,Clear,180,2013-04-19 01:52:00
10:09 PM,53.6,39.2,58,30.18,10.0,South,9.2,-,N/A,,Mostly Cloudy,170,2013-04-19 02:09:00
10:52 PM,53.1,42.1,66,30.16,10.0,South,9.2,-,N/A,,Overcast,180,2013-04-19 02:52:00
11:52 PM,53.1,44.1,71,30.14,10.0,South,6.9,-,N/A,,Overcast,170,2013-04-19 03:52:00